Time,TemperatureF,DewpointF,PressureIn,WindDirection,WindDirectionDegrees,WindSpeedMPH,WindSpeedGustMPH,Humidity,HourlyPrecipIn,Conditions,Clouds,dailyrainin,SolarRadiationWatts/m^2,SoftwareType,DateUTC
2013-07-06 00:01:00,55.0,32.0,-100.00,NE,56,9.0,12.0,42,0.00,,,0.00,1.000000,,2013-07-06 07:01:00,
2013-07-06 00:02:00,54.0,34.0,-100.00,ENE,74,7.0,14.0,47,0.00,,,0.00,1.000000,,2013-07-06 07:02:00,
2013-07-06 00:33:00,54.0,34.0,-100.00,ENE,74,7.0,14.0,47,0.00,,,0.00,1.000000,,2013-07-06 07:33:00,
2013-07-06 00:44:00,54.0,34.0,-100.00,ENE,74,7.0,14.0,47,0.00,,,0.00,1.000000,,2013-07-06 07:44:00,
2013-07-06 00:52:00,54.0,34.0,-100.00,ENE,74,7.0,14.0,47,0.00,,,0.00,1.000000,,2013-07-06 07:52:00,
2013-07-06 01:02:00,53.0,36.0,-100.00,ENE,74,8.0,13.0,53,0.00,,,0.00,1.000000,,2013-07-06 08:02:00,
2013-07-06 01:22:00,53.0,36.0,-100.00,ENE,74,8.0,13.0,53,0.00,,,0.00,1.000000,,2013-07-06 08:22:00,
2013-07-06 01:34:00,53.0,36.0,-100.00,ENE,74,8.0,13.0,53,0.00,,,0.00,1.000000,,2013-07-06 08:34:00,
2013-07-06 01:43:00,53.0,36.0,-100.00,ENE,74,8.0,13.0,53,0.00,,,0.00,1.000000,,2013-07-06 08:43:00,
2013-07-06 01:54:00,53.0,36.0,-100.00,ENE,74,8.0,13.0,53,0.00,,,0.00,1.000000,,2013-07-06 08:54:00,
2013-07-06 02:02:00,52.0,39.0,-100.00,East,89,7.0,12.0,60,0.00,,,0.00,1.000000,,2013-07-06 09:02:00,
2013-07-06 02:22:00,52.0,39.0,-100.00,East,89,7.0,12.0,60,0.00,,,0.00,1.000000,,2013-07-06 09:22:00,
2013-07-06 02:33:00,52.0,39.0,-100.00,East,89,7.0,12.0,60,0.00,,,0.00,1.000000,,2013-07-06 09:33:00,
2013-07-06 02:43:00,52.0,39.0,-100.00,East,89,7.0,12.0,60,0.00,,,0.00,1.000000,,2013-07-06 09:43:00,
2013-07-06 02:52:00,52.0,39.0,-100.00,East,89,7.0,12.0,60,0.00,,,0.00,1.000000,,2013-07-06 09:52:00,
2013-07-06 03:22:00,51.0,38.0,-100.00,ENE,72,5.0,10.0,62,0.00,,,0.00,1.000000,,2013-07-06 10:22:00,
2013-07-06 03:33:00,51.0,38.0,-100.00,ENE,72,5.0,10.0,62,0.00,,,0.00,1.000000,,2013-07-06 10:33:00,
2013-07-06 03:43:00,51.0,38.0,-100.00,ENE,72,5.0,10.0,62,0.00,,,0.00,1.000000,,2013-07-06 10:43:00,
2013-07-06 03:53:00,51.0,38.0,-100.00,ENE,72,5.0,10.0,62,0.00,,,0.00,1.000000,,2013-07-06 10:53:00,
2013-07-06 04:01:00,51.0,38.0,-100.00,ENE,72,5.0,10.0,62,0.00,,,0.00,1.000000,,2013-07-06 11:01:00,
2013-07-06 04:22:00,51.0,39.0,-100.00,East,79,6.0,8.0,64,0.00,,,0.00,1.000000,,2013-07-06 11:22:00,
2013-07-06 04:33:00,51.0,39.0,-100.00,East,79,6.0,8.0,64,0.00,,,0.00,1.000000,,2013-07-06 11:33:00,
2013-07-06 04:43:00,51.0,39.0,-100.00,East,79,6.0,8.0,64,0.00,,,0.00,1.000000,,2013-07-06 11:43:00,
2013-07-06 04:53:00,51.0,39.0,-100.00,East,79,6.0,8.0,64,0.00,,,0.00,1.000000,,2013-07-06 11:53:00,
2013-07-06 05:01:00,51.0,39.0,-100.00,East,79,6.0,8.0,64,0.00,,,0.00,1.000000,,2013-07-06 12:01:00,
2013-07-06 05:33:00,50.0,40.0,-100.00,East,89,5.0,7.0,68,-99.99,,,0.00,1.000000,,2013-07-06 12:33:00,
2013-07-06 05:43:00,50.0,40.0,-100.00,East,89,5.0,7.0,68,-99.99,,,0.00,1.000000,,2013-07-06 12:43:00,
2013-07-06 05:52:00,50.0,40.0,-100.00,East,89,5.0,7.0,68,-99.99,,,0.00,1.000000,,2013-07-06 12:52:00,
2013-07-06 06:01:00,50.0,40.0,-100.00,East,89,5.0,7.0,68,-99.99,,,0.00,1.000000,,2013-07-06 13:01:00,
2013-07-06 06:02:00,47.0,38.0,-100.00,South,174,3.0,6.0,70,-99.99,,,-99.99,11.000000,,2013-07-06 13:02:00,
2013-07-06 06:33:00,47.0,38.0,-100.00,South,174,3.0,6.0,70,-99.99,,,-99.99,11.000000,,2013-07-06 13:33:00,
2013-07-06 06:43:00,47.0,38.0,-100.00,South,174,3.0,6.0,70,-99.99,,,-99.99,11.000000,,2013-07-06 13:43:00,
2013-07-06 06:52:00,47.0,38.0,-100.00,South,174,3.0,6.0,70,-99.99,,,-99.99,11.000000,,2013-07-06 13:52:00,
2013-07-06 07:02:00,54.0,38.0,-100.00,WSW,255,5.0,7.0,55,0.00,,,0.00,127.000000,,2013-07-06 14:02:00,
2013-07-06 08:22:00,57.0,38.0,-100.00,West,261,4.0,6.0,49,0.00,,,0.00,294.000000,,2013-07-06 15:22:00,
2013-07-06 08:33:00,57.0,38.0,-100.00,West,261,4.0,6.0,49,0.00,,,0.00,294.000000,,2013-07-06 15:33:00,
2013-07-06 08:43:00,57.0,38.0,-100.00,West,261,4.0,6.0,49,0.00,,,0.00,294.000000,,2013-07-06 15:43:00,
2013-07-06 08:53:00,57.0,38.0,-100.00,West,261,4.0,6.0,49,0.00,,,0.00,294.000000,,2013-07-06 15:53:00,
2013-07-06 09:02:00,63.0,38.0,-100.00,WSW,258,3.0,7.0,40,0.00,,,0.00,474.000000,,2013-07-06 16:02:00,
2013-07-06 10:02:00,68.0,40.0,-100.00,North,349,5.0,8.0,36,0.00,,,0.00,658.000000,,2013-07-06 17:02:00,
2013-07-06 10:44:00,68.0,40.0,-100.00,North,349,5.0,8.0,36,0.00,,,0.00,658.000000,,2013-07-06 17:44:00,
2013-07-06 11:02:00,69.0,40.0,-100.00,NW,325,5.0,11.0,35,0.00,,,0.00,805.000000,,2013-07-06 18:02:00,
2013-07-06 11:38:00,69.0,40.0,-100.00,NW,325,5.0,11.0,35,0.00,,,0.00,805.000000,,2013-07-06 18:38:00,
2013-07-06 11:58:00,69.0,40.0,-100.00,NW,325,5.0,11.0,35,0.00,,,0.00,805.000000,,2013-07-06 18:58:00,
2013-07-06 12:02:00,73.0,39.0,-100.00,North,1,4.0,12.0,29,0.00,,,0.00,917.000000,,2013-07-06 19:02:00,
2013-07-06 12:56:00,73.0,39.0,-100.00,North,1,4.0,12.0,29,0.00,,,0.00,917.000000,,2013-07-06 19:56:00,
2013-07-06 13:01:00,73.0,39.0,-100.00,North,1,4.0,12.0,29,0.00,,,0.00,917.000000,,2013-07-06 20:01:00,
2013-07-06 13:02:00,76.0,37.0,-100.00,NNW,348,8.0,14.0,24,0.00,,,-99.99,978.000000,,2013-07-06 20:02:00,
2013-07-06 13:35:00,76.0,37.0,-100.00,NNW,348,8.0,14.0,24,0.00,,,-99.99,978.000000,,2013-07-06 20:35:00,
2013-07-06 13:57:00,76.0,37.0,-100.00,NNW,348,8.0,14.0,24,0.00,,,-99.99,978.000000,,2013-07-06 20:57:00,
2013-07-06 14:02:00,79.0,30.0,-100.00,NNW,335,8.0,15.0,17,0.00,,,0.00,996.000000,,2013-07-06 21:02:00,
2013-07-06 15:02:00,81.0,32.0,-100.00,North,4,8.0,14.0,17,0.00,,,0.00,964.000000,,2013-07-06 22:02:00,
2013-07-06 15:36:00,81.0,32.0,-100.00,North,4,8.0,14.0,17,0.00,,,0.00,964.000000,,2013-07-06 22:36:00,
2013-07-06 15:57:00,81.0,32.0,-100.00,North,4,8.0,14.0,17,0.00,,,0.00,964.000000,,2013-07-06 22:57:00,
2013-07-06 18:02:00,83.0,27.0,-100.00,North,358,9.0,18.0,13,0.00,,,0.00,576.000000,,2013-07-07 01:02:00,
2013-07-06 18:35:00,83.0,27.0,-100.00,North,358,9.0,18.0,13,0.00,,,0.00,576.000000,,2013-07-07 01:35:00,
2013-07-06 18:47:00,83.0,27.0,-100.00,North,358,9.0,18.0,13,0.00,,,0.00,576.000000,,2013-07-07 01:47:00,
2013-07-06 19:42:00,81.0,31.0,-100.00,North,7,11.0,19.0,16,0.00,,,0.00,390.000000,,2013-07-07 02:42:00,
2013-07-06 19:50:00,81.0,31.0,-100.00,North,7,11.0,19.0,16,0.00,,,0.00,390.000000,,2013-07-07 02:50:00,
2013-07-06 20:01:00,81.0,31.0,-100.00,North,7,11.0,19.0,16,0.00,,,0.00,390.000000,,2013-07-07 03:01:00,
2013-07-06 20:51:00,78.0,28.0,-100.00,North,3,11.0,19.0,16,0.00,,,0.00,206.000000,,2013-07-07 03:51:00,
2013-07-06 20:59:00,78.0,28.0,-100.00,North,3,11.0,19.0,16,0.00,,,0.00,206.000000,,2013-07-07 03:59:00,
2013-07-06 21:31:00,71.0,36.0,-100.00,North,353,7.0,15.0,28,0.00,,,0.00,39.000000,,2013-07-07 04:31:00,
2013-07-06 21:41:00,71.0,36.0,-100.00,North,353,7.0,15.0,28,0.00,,,0.00,39.000000,,2013-07-07 04:41:00,
2013-07-06 21:51:00,71.0,36.0,-100.00,North,353,7.0,15.0,28,0.00,,,0.00,39.000000,,2013-07-07 04:51:00,
2013-07-06 22:01:00,71.0,36.0,-100.00,North,353,7.0,15.0,28,0.00,,,0.00,39.000000,,2013-07-07 05:01:00,
2013-07-06 22:21:00,68.0,34.0,-100.00,North,6,6.0,13.0,28,0.00,,,0.00,1.000000,,2013-07-07 05:21:00,
2013-07-06 22:31:00,68.0,34.0,-100.00,North,6,6.0,13.0,28,0.00,,,0.00,1.000000,,2013-07-07 05:31:00,
2013-07-06 22:41:00,68.0,34.0,-100.00,North,6,6.0,13.0,28,0.00,,,0.00,1.000000,,2013-07-07 05:41:00,
2013-07-06 22:51:00,68.0,34.0,-100.00,North,6,6.0,13.0,28,0.00,,,0.00,1.000000,,2013-07-07 05:51:00,
2013-07-06 23:01:00,68.0,34.0,-100.00,North,6,6.0,13.0,28,0.00,,,0.00,1.000000,,2013-07-07 06:01:00,
2013-07-06 23:22:00,64.0,36.0,-100.00,NE,49,5.0,10.0,35,0.00,,,0.00,1.000000,,2013-07-07 06:22:00,
2013-07-06 23:32:00,64.0,36.0,-100.00,NE,49,5.0,10.0,35,0.00,,,0.00,1.000000,,2013-07-07 06:32:00,
2013-07-06 23:43:00,64.0,36.0,-100.00,NE,49,5.0,10.0,35,0.00,,,0.00,1.000000,,2013-07-07 06:43:00,
2013-07-06 23:52:00,64.0,36.0,-100.00,NE,49,5.0,10.0,35,0.00,,,0.00,1.000000,,2013-07-07 06:52:00,